Regional Weather Roundup
Issued by NWS

Home | Current Version | Previous Version | Text Only | Print | Product List | Glossary Off
Versions: 1 2 3 4 5 6 7 8 9 10 11 12 13 14 15 16 17 18 19 20 21 22 23 24 25 26 27 28 29 30 31 32 33 34 35 36 37 38 39 40 41 42 43 44 45 46 47 48 49 50

000
ASUS43 KMPX 181210
RWRMN
WEATHER ROUNDUP FOR MINNESOTA
NATIONAL WEATHER SERVICE TWIN CITIES/CHANHASSEN MN
600 AM CST SAT NOV 18 2017


NOTE: "FAIR" INDICATES FEW OR NO CLOUDS BELOW 12,000 FEET WITH NO
SIGNIFICANT WEATHER AND/OR OBSTRUCTIONS TO VISIBILITY. N/A MEANS
CURRENT SKY AND/OR WEATHER CONDITIONS ARE NOT AVAILABLE.

MNZ060>063-068>070-181300-
   Twin Cities Metro

CITY           SKY/WX    TMP DP  RH WIND       PRES   REMARKS
TWIN CITIES    CLOUDY    34  32  92 N9        29.74R WCI  27
6HR MIN TEMP:  34; 6HR MAX TEMP:  36;

ST PAUL        CLOUDY    34  32  92 N9        29.75S WCI  27
CRYSTAL        CLOUDY    33  28  81 NW13      29.74R WCI  24
BLAINE         MOCLDY    34  34 100 NW10      29.74S WCI  26
LAKEVILLE      CLOUDY    34  34 100 N12       29.73R WCI  25
EDEN PRAIRIE   CLOUDY    34  30  85 N9        29.73S WCI  27
6HR MIN TEMP:  34; 6HR MAX TEMP:  37;

SOUTH ST PAUL  CLOUDY    34  34 100 N9        29.74R WCI  27
LAKE ELMO      CLOUDY    34  32  93 N7        29.74R WCI  28
$$
MNZ001>005-007-008-013>017-022>024-027-028-181300-
   Northwest Minnesota

CITY           SKY/WX    TMP DP  RH WIND       PRES   REMARKS
BEMIDJI        MOCLDY    14  12  91 W5        29.81S WCI   6
HALLOCK        CLOUDY    16  12  86 NW10      29.89R WCI   3
ROSEAU         CLOUDY    16  10  79 W7        29.85R WCI   6
WARROAD        CLOUDY    12   9  85 W5        29.84R WCI   4
THIEF RVR FALL PTCLDY    15  11  83 NW12      29.87R WCI   2
CROOKSTON      CLEAR     16  12  86 NW10      29.91R WCI   3
FOSSTON        CLOUDY    16  12  86 NW8       29.86R WCI   5
DETROIT LAKES  CLEAR     18  16  93 NW9       29.86R WCI   6
MOORHEAD       CLOUDY    19  16  86 NW12      29.90S WCI   7
PARK RAPIDS    CLEAR     18  14  84 NW9       29.81R WCI   7
MAHNOMEN       CLOUDY    17  14  88 NW9       29.86R WCI   5
$$
MNZ006-009>011-018-025>026-181300-
   North Central Minnesota

CITY           SKY/WX    TMP DP  RH WIND       PRES   REMARKS
BAUDETTE       CLOUDY    16  12  84 W8        29.81R WCI   5
FLAG ISLAND    CLOUDY    12  10  92 W8        29.82R WCI   1
INTL FALLS     PTCLDY    14  11  87 W3        29.79R FOG
6HR MIN TEMP:  13; 6HR MAX TEMP:  21;

WASKISH        MOCLDY    16  12  86 W7        29.82S WCI   6
BIG FORK       CLEAR     16  12  86 CALM      29.79R
LONGVILLE      CLEAR     19  18  93 NW3       29.80R
GRAND RAPIDS   CLEAR     19  16  88 NW7       29.79R WCI  10
CRANE LAKE     MOCLDY    16  16 100 CALM      29.77F FOG
ORR            PTCLDY    14  12  92 NW6       29.74R WCI   5
COOK           PTCLDY    16  16 100 CALM      29.75S FOG
WALKER         FAIR      16  13  88 W5        29.82R WCI   9
$$
MNZ012-019>021-037-181300-
   Northeast Minnesota

CITY           SKY/WX    TMP DP  RH WIND       PRES   REMARKS
DULUTH         CLOUDY    25  23  92 NW12      29.72R WCI  14
6HR MIN TEMP:  25; 6HR MAX TEMP:  31;

ELY            CLOUDY    25  21  86 CALM      29.72F
HIBBING        CLOUDY    18  15  88 N6        29.74S WCI  10
EVELETH        CLOUDY    19  16  86 NW6       29.75S WCI  11
DULUTH HARBOR  MOCLDY    30  27  86 NW14      29.77R WCI  20
TWO HARBORS    CLOUDY    34  27  75 NW3       29.71R
SILVER BAY     CLOUDY    30  27  86 N5        29.69F WCI  25
GRAND MARAIS     N/A     33  27  78 CALM      29.70S
G MARAIS ARPRT CLOUDY    25  19  80 NW9       29.65S WCI  15
$$
MNZ029>031-032-039>041-046>048-054>057-064-181300-
   West Central Minnesota

CITY           SKY/WX    TMP DP  RH WIND       PRES   REMARKS
FERGUS FALLS   MOCLDY    18  16  93 N8        29.89S WCI   7
WHEATON        CLEAR     19  16  86 W7        29.91R WCI  10
MORRIS         CLEAR     19  18  93 NW10      29.84S WCI   8
ALEXANDRIA     CLEAR     22  19  89 NW9       29.82R WCI  12
ELBOW LAKE     FAIR      19  16  90 W13       29.86R WCI   5
WADENA         CLEAR     18  16  93 W6        29.83R WCI   9
GLENWOOD       CLEAR     21  21 100 NW10      29.82R WCI  10
APPLETON       PTCLDY    23  18  80 NW9       29.86S WCI  13
BENSON         PTCLDY    21  18  86 N8        29.85S WCI  12
ORTONVILLE     CLEAR     21  18  86 MISG      29.86R
MADISON        PTCLDY    25  21  86 NW10      29.86F WCI  15
WILLMAR        FAIR      27  23  86 NW10      29.83R WCI  17
$$
MNZ033>034-036-042>043-049>051-058-059-181300-
   Central Minnesota

CITY           SKY/WX    TMP DP  RH WIND       PRES   REMARKS
ST CLOUD       CLOUDY    29  25  85 NW9       29.78S WCI  20
6HR MIN TEMP:  29; 6HR MAX TEMP:  33;

SAUK CENTRE    FAIR      24  20  85 NW5       29.80F WCI  18
PAYNESVILLE    CLOUDY    28  25  89 NW5       29.81R WCI  23
AITKIN         CLEAR     21  16  79 NW6       29.76F WCI  14
PINE RIVER     CLEAR     19  16  86 NW5       29.83R WCI  13
BRAINERD       CLEAR     24  18  77 NW5       29.78S WCI  18
STAPLES        CLEAR     19  16  86 NW6       29.81R WCI  11
LONG PRAIRIE   FAIR      23  19  86 W5        29.80S WCI  17
LITTLE FALLS   PTCLDY    28  18  64 CALM      29.79F
LITCHFIELD     PTCLDY    30  28  93 NW9       29.79S WCI  22
BUFFALO        PTCLDY    31  27  86 NW9       29.78R WCI  23
MAPLE LAKE     CLOUDY    32  28  88 NW12      29.78S WCI  23
HUTCHINSON     PTCLDY    31  28  88 NW13      29.79R WCI  22
$$
MNZ037-044-045-052-053-181300-
   East Central Minnesota

CITY           SKY/WX    TMP DP  RH WIND       PRES   REMARKS
PRINCETON      PTCLDY    30  28  93 NW8       29.78S WCI  23
MORA           CLOUDY    28  25  86 NW7       29.79R WCI  21
CAMBRIDGE      CLOUDY    32  28  86 NW5       29.77R WCI  27
RUSH CITY      CLOUDY    31  28  88 NW7       29.76R WCI  24
MOOSE LAKE     MOCLDY    28  23  80 N7        29.75R WCI  21
HINCKLEY       FAIR      30  28  93 NW6       29.77R WCI  24
CLOQUET        CLOUDY    25  21  86 NW10G17   29.74R VSB 1   WCI  15
MCGREGOR       MOCLDY    25  21  86 NW7       29.77S WCI  17
$$
MNZ071>073-080-081-089-090-097-098-181300-
   Southwest Minnesota

CITY           SKY/WX    TMP DP  RH WIND       PRES   REMARKS
MONTEVIDEO     PTCLDY    23  18  80 N13       29.85R WCI  11
GRANITE FALLS  MOCLDY    26  22  82 NW13      29.86R WCI  15
CANBY          PTCLDY    25  21  84 W7        29.87R WCI  17
MARSHALL       MOCLDY    25  19  78 NW17      29.85R WCI  12
REDWOOD FALLS  CLOUDY    27  20  75 NW10      29.81R WCI  17
OLIVIA         CLOUDY    28  25  86 NW13      29.80S WCI  18
PIPESTONE      MOCLDY    28  21  74 N14       29.82R WCI  17
WINDOM           N/A     27  16  63 NW17      29.78R WCI  14
WORTHINGTON    CLOUDY    28  23  81 NW20      29.80R WCI  15
JACKSON        CLOUDY    28  25  86 NW13G18   29.77R WCI  18
SLAYTON        MOCLDY    27  22  81 N10       29.82R WCI  17
$$
MNZ065>067-074>077-082>085-091>093-181300-
   South Central Minnesota

CITY           SKY/WX    TMP DP  RH WIND       PRES   REMARKS
MANKATO        CLOUDY    33  30  88 NW14      29.76R WCI  23
NEW ULM        CLOUDY    28  25  86 NW12G17   29.79R WCI  18
ST JAMES       CLOUDY    28  27  93 NW16      29.79R WCI  17
FAIRMONT       CLOUDY    30  27  88 NW17G24   29.77R WCI  18
GLENCOE        CLOUDY    33  33 100 NW8       29.77R WCI  26
FARIBAULT      CLOUDY    36  34  93 NW8       29.73R FOG
OWATONNA       CLOUDY    36  34  93 NW8       29.73R FOG
WASECA         CLOUDY    34  32  93 NW12      29.75R FOG     WCI  25
ALBERT LEA     CLOUDY    34  34 100 N10       29.71R FOG     WCI  26
$$
MNZ078>079-086>088-094>096-181300-
   Southeast Minnesota

CITY           SKY/WX    TMP DP  RH WIND       PRES   REMARKS
ROCHESTER      CLOUDY    34  33  96 N17       29.68R FOG     WCI  23
6HR MIN TEMP:  34; 6HR MAX TEMP:  36;

RED WING       CLOUDY    36  30  80 NW5       29.71R
DODGE CENTER   CLOUDY    34  34 100 N12       29.70R FOG     WCI  25
WINONA         CLOUDY    36  34  93 N8        29.68R
AUSTIN         CLOUDY    34  32  93 N12G21    29.69R FOG     WCI  25
PRESTON        CLOUDY    33  32  96 N13       29.67R FOG     WCI  24
$$
ABBREVIATIONS USED IN REMARKS
   TC - TEMPERATURES IN CELSIUS
  WCI - WIND CHILL INDEX
   HX - HEAT INDEX
  VSB - VISIBILITY
$$




USA.gov is the U.S. government's official web portal to all federal, state and local government web resources and services.